ON1TG-13 Weather Reports


time (UTC)temp
F
wind
direction
speed
knots
gust
knots
rain 1hr
in
rain 24hr
in
rain mn
in
humidity
%
barometer
mb
20260510091228 70 21 14.8 30.4 0.00 0.00 0.00 21 1014.6
20260510085720 69 20 17.4 29.5 0.00 0.00 0.00 21 1014.7
20260510084213 69 10 15.6 27.8 0.00 0.00 0.00 21 1014.8
20260510082705 71 18 14.8 25.2 0.00 0.00 0.00 21 1014.8
20260510081158 71 21 15.6 25.2 0.00 0.00 0.00 21 1015.2
20260510075651 69 15 14.8 25.2 0.00 0.00 0.00 21 1015.1
20260510074144 70 15 13.9 26.1 0.00 0.00 0.00 21 1015.4
20260510072635 68 20 15.6 26.1 0.00 0.00 0.00 21 1015.4
20260510071128 69 13 13.0 25.2 0.00 0.00 0.00 21 1015.3
20260510065621 71 25 15.6 24.3 0.00 0.00 0.00 21 1015.3
20260510064113 70 22 13.9 21.7 0.00 0.00 0.00 21 1015.3
20260510062605 67 20 14.8 23.5 0.00 0.00 0.00 21 1015.0
20260510061058 71 24 10.4 23.5 0.00 0.00 0.00 21 1015.4
20260510055551 67 22 13.0 21.7 0.00 0.00 0.00 21 1015.0
20260510054043 67 28 13.9 22.6 0.00 0.00 0.00 21 1015.2
20260510052535 68 18 10.4 20.0 0.00 0.00 0.00 21 1015.1
20260510051027 66 23 12.2 20.0 0.00 0.00 0.00 21 1015.1
20260510045520 65 14 13.0 22.6 0.00 0.00 0.00 21 1015.3
20260510044013 64 20 11.3 20.9 0.00 0.00 0.00 21 1015.4
20260510042504 64 20 13.0 23.5 0.00 0.00 0.00 21 1014.7
20260510040957 66 17 10.4 20.9 0.00 0.00 0.00 21 1015.2
20260510035450 67 15 9.6 19.1 0.00 0.00 0.00 21 1015.2
20260510033943 65 22 10.4 18.2 0.00 0.00 0.00 21 1015.1
20260510032435 64 24 9.6 19.1 0.00 0.00 0.00 21 1015.3
20260510030928 64 16 9.6 18.2 0.00 0.00 0.00 21 1015.4
20260510025421 67 25 11.3 21.7 0.00 0.00 0.00 21 1015.1
20260510023914 68 23 9.6 20.0 0.00 0.00 0.00 21 1015.4
20260510022406 67 20 11.3 18.2 0.00 0.00 0.00 21 1015.3
20260510020859 65 24 10.4 21.7 0.00 0.00 0.00 21 1015.4
20260510015351 65 22 10.4 20.0 0.00 0.00 0.00 21 1015.5
20260510013844 66 27 8.7 17.4 0.00 0.00 0.00 21 1015.7
20260510012336 65 10 10.4 18.2 0.00 0.00 0.00 21 1015.5
20260510010829 66 17 8.7 16.5 0.00 0.00 0.00 21 1015.7
20260510005322 66 25 10.4 16.5 0.00 0.00 0.00 21 1015.8
20260510003814 65 26 7.8 17.4 0.00 0.00 0.00 21 1016.0
20260510002307 66 24 10.4 19.1 0.00 0.00 0.00 21 1015.9
20260510000800 65 10 9.6 19.1 0.00 0.00 0.00 21 1015.9
20260509235253 65 27 9.6 21.7 0.00 0.00 0.00 21 1016.1
20260509233744 65 22 9.6 14.8 0.00 0.00 0.00 21 1016.3
20260509232237 66 21 7.8 15.6 0.00 0.00 0.00 21 1016.4
20260509230730 66 26 9.6 17.4 0.00 0.00 0.00 21 1016.3
20260509225223 66 20 10.4 17.4 0.00 0.00 0.00 21 1016.2
20260509223714 66 17 8.7 13.9 0.00 0.00 0.00 21 1016.4
20260509222206 67 20 7.8 17.4 0.00 0.00 0.00 21 1016.4
20260509220659 66 23 8.7 14.8 0.00 0.00 0.00 21 1016.3
20260509215152 67 19 8.7 18.2 0.00 0.00 0.00 21 1016.5
20260509213644 66 17 9.6 19.1 0.00 0.00 0.00 21 1016.4
20260509212137 66 19 9.6 18.2 0.00 0.00 0.00 21 1016.4
20260509210630 66 26 8.7 18.2 0.00 0.00 0.00 21 1016.3
20260509205122 66 16 7.8 19.1 0.00 0.00 0.00 21 1016.2
20260509203615 66 19 7.8 15.6 0.00 0.00 0.00 21 1016.3
20260509202107 66 25 6.1 18.2 0.00 0.00 0.00 21 1016.2
20260509200559 68 26 8.7 17.4 0.00 0.00 0.00 21 1016.1
20260509195051 66 19 10.4 18.2 0.00 0.00 0.00 21 1015.9
20260509193544 68 27 7.8 16.5 0.00 0.00 0.00 21 1016.0
20260509192037 67 20 7.0 17.4 0.00 0.00 0.00 21 1015.9
20260509190530 67 13 9.6 18.2 0.00 0.00 0.00 21 1015.7
20260509185022 69 22 9.6 18.2 0.00 0.00 0.00 21 1016.0
20260509183515 70 17 10.4 18.2 0.00 0.00 0.00 21 1015.8
20260509182008 69 18 10.4 19.1 0.00 0.00 0.00 21 1015.8
20260509180500 70 17 10.4 18.2 0.00 0.00 0.00 21 1015.9
20260509174953 70 11 11.3 19.1 0.00 0.00 0.00 21 1015.9
20260509173446 70 16 10.4 21.7 0.00 0.00 0.00 21 1015.8
20260509171938 69 12 11.3 20.9 0.00 0.00 0.00 21 1015.8
20260509170431 71 19 9.6 19.1 0.00 0.00 0.00 21 1015.6
20260509164924 70 16 12.2 21.7 0.00 0.00 0.00 21 1015.5
20260509163415 70 20 12.2 23.5 0.00 0.00 0.00 21 1015.6
20260509161908 71 6 10.4 21.7 0.00 0.00 0.00 21 1015.7
20260509160401 71 10 13.0 21.7 0.00 0.00 0.00 21 1015.5
20260509154853 72 19 11.3 21.7 0.00 0.00 0.00 21 1015.9
20260509153346 73 16 12.2 22.6 0.00 0.00 0.00 21 1015.5
20260509151839 72 18 14.8 21.7 0.00 0.00 0.00 21 1015.7
20260509150331 72 17 13.9 22.6 0.00 0.00 0.00 21 1015.5
20260509144824 72 17 13.0 22.6 0.00 0.00 0.00 21 1015.5
20260509143317 74 16 12.2 22.6 0.00 0.00 0.00 21 1015.9
20260509141809 74 15 11.3 20.9 0.00 0.00 0.00 21 1015.8
20260509140302 74 25 12.2 20.9 0.00 0.00 0.00 21 1015.9
20260509134755 75 20 13.9 21.7 0.00 0.00 0.00 21 1015.9
20260509133247 74 11 12.2 21.7 0.00 0.00 0.00 21 1015.6
20260509131740 75 20 11.3 21.7 0.00 0.00 0.00 21 1016.1
20260509130233 79 21 10.4 19.1 0.00 0.00 0.00 21 1016.3
20260509124725 78 18 12.2 20.0 0.00 0.00 0.00 21 1016.1
20260509123219 76 19 12.2 19.1 0.00 0.00 0.00 21 1016.3
20260509121711 76 16 9.6 19.1 0.00 0.00 0.00 21 1016.5
20260509120203 76 13 10.4 20.0 0.00 0.00 0.00 21 1016.8
20260509113149 75 16 11.3 19.1 0.00 0.00 0.00 21 1016.9
20260509111641 76 9 10.4 20.0 0.00 0.00 0.00 21 1017.1
20260509110134 76 19 12.2 20.0 0.00 0.00 0.00 21 1017.2
20260509104627 75 24 13.0 20.9 0.00 0.00 0.00 21 1017.2
20260509103120 75 15 11.3 19.1 0.00 0.00 0.00 21 1017.4
20260509101613 76 19 9.6 17.4 0.00 0.00 0.00 21 1017.3
20260509100105 78 18 9.6 17.4 0.00 0.00 0.00 21 1017.6
20260509094558 79 19 7.8 14.8 0.00 0.00 0.00 21 1017.5
20260509093050 80 19 7.0 12.2 0.00 0.00 0.00 21 1017.5